This demonstration page uses our WeatherBlox Daily Observations layout. Learn more.

Left ArrowRight Arrow

Hourly Observations for June 1, 2019

Temp ( °F °C ) Dew Point ( °F °C ) Humidity (%) Winds ( mph kmh ) Pressure ( in mb ) Visibility ( mi km ) Precip ( " mm )
12:16 am 00:16 Cloudy with Thunderstorms 68 20 65 18.3 90 90 WSW 10 17 29.87 1011 4 6 0.04 1.02
12:27 am 00:27 Cloudy with Thunderstorms 68 20 66 18.9 93 93 SW 5 7 29.87 1011 2 3 0.12 3.05
12:34 am 00:34 Cloudy with Strong Thunderstorms 68 20 66 18.9 93 93 Calm 29.86 1011 2 3 0.24 6.10
12:52 am 00:52 Cloudy with Thunderstorms 68 20 66 18.9 93 93 NE 7 11 29.81 1009 3 5 0.34 8.64
12:59 am 00:59 Cloudy with Thunderstorms 68 20 66 18.9 93 93 ENE 6 9 29.80 1009 3 5 0.38 9.65
1:16 am 01:16 Cloudy with Light Rain 68 20 66 18.9 93 93 E 12 19 29.77 1008 6 10 0.04 1.02
1:59 am 01:59 Partly Cloudy 67 19.4 65 18.3 93 93 S 8 13 29.72 1007 10 16 0.04 1.02
2:59 am 02:59 Partly Cloudy 66 18.9 64 17.8 93 93 Calm 29.75 1008 10 16 0.00 0.00
3:59 am 03:59 Mostly Cloudy 67 19.4 66 18.9 97 97 NW 3 6 29.77 1008 10 16 0.00 0.00
4:39 am 04:39 Cloudy 70 21.1 68 20 93 93 NW 9 15 29.78 1008 10 16 0.00 0.00
4:59 am 04:59 Cloudy 69 20.6 66 18.9 90 90 WNW 9 15 29.79 1009 10 16 0.00 0.00
5:59 am 05:59 Cloudy with Rain 69 20.6 67 19.4 93 93 NNW 9 15 29.81 1010 8 13 0.02 0.51
6:25 am 06:25 Cloudy with Thunderstorms 69 20.6 66 18.9 90 90 NNW 8 13 29.81 1009 10 16 0.00 0.03
6:46 am 06:46 Cloudy with Thunderstorms 69 20.6 67 19.4 93 93 N 7 11 29.81 1009 7 11 0.00 0.03
6:59 am 06:59 Cloudy with Thunderstorms 70 21.1 67 19.4 90 90 NNW 12 19 29.81 1010 8 13 0.00 0.03
7:59 am 07:59 Cloudy with Thunderstorms 69 20.6 64 17.8 84 84 NW 12 19 29.84 1010 10 16 0.00 0.03
8:10 am 08:10 Cloudy with Thunderstorms 69 20.6 64 17.8 84 84 ENE 6 9 29.86 1011 10 16 0.00 0.03
8:23 am 08:23 Cloudy with Strong Thunderstorms 68 20 65 18.3 90 90 ENE 13 20 29.87 1011 2 3 0.13 3.30
8:28 am 08:28 Cloudy with Strong Thunderstorms 66 18.9 64 17.8 93 93 NE 21 33 29.88 1012 1 2 0.25 6.35
8:36 am 08:36 Cloudy with Strong Thunderstorms 65 18.3 63 17.2 93 93 NE 14 22 29.89 1012 1 2 0.47 11.94
8:44 am 08:44 Cloudy with Strong Thunderstorms 65 18.3 64 17.8 97 97 NE 10 17 29.89 1012 2 3 0.54 13.72
8:59 am 08:59 Cloudy with Thunderstorms 64 17.8 62 16.7 93 93 NE 8 13 29.88 1012 2 3 0.60 15.24
9:26 am 09:26 Cloudy with Thunderstorms 65 18.3 62 16.7 90 90 N 7 11 29.89 1012 5 8 0.04 1.02
9:36 am 09:36 Cloudy with Light Rain 66 18.9 63 17.2 90 90 N 8 13 29.89 1012 4 6 0.06 1.52
9:59 am 09:59 Cloudy with Light Rain 66 18.9 64 17.8 93 93 N 6 9 29.88 1012 4 6 0.12 3.05
10:59 am 10:59 Cloudy with Light Rain 69 20.6 64 17.8 84 84 Calm 29.84 1011 10 16 0.04 1.02
11:59 am 11:59 Mostly Cloudy 73 22.8 64 17.8 74 74 NW 6 9 29.84 1011 10 16 0.00 0.03
12:59 pm 12:59 Mostly Cloudy 77 25 64 17.8 64 64 NNW 9 15 29.83 1010 10 16 0.00 0.00
1:59 pm 13:59 Mostly Cloudy 76 24.4 65 18.3 69 69 NW 6 9 29.83 1010 10 16 0.00 0.00
2:59 pm 14:59 Mostly Cloudy 79 26.1 64 17.8 60 60 NW 7 11 29.82 1010 10 16 0.00 0.00
3:59 pm 15:59 Mostly Cloudy 81 27.2 61 16.1 51 51 NNE 8 13 29.81 1010 10 16 0.00 0.00
4:59 pm 16:59 Mostly Cloudy with Thunderstorms 78 25.6 60 15.6 54 54 E 6 9 29.82 1010 10 16 0.00 0.00
5:59 pm 17:59 Mostly Cloudy 76 24.4 65 18.3 69 69 Calm 29.83 1010 10 16 0.00 0.00
6:59 pm 18:59 Mostly Cloudy 77 25 64 17.8 64 64 N 5 7 29.81 1010 10 16 0.00 0.00
7:59 pm 19:59 Mostly Cloudy 71 21.7 65 18.3 81 81 Calm 29.82 1010 10 16 0.00 0.00
8:59 pm 20:59 Mostly Cloudy 68 20 65 18.3 90 90 Calm 29.83 1010 10 16 0.00 0.00
9:59 pm 21:59 Mostly Cloudy 68 20 64 17.8 87 87 Calm 29.84 1011 10 16 0.00 0.00
10:59 pm 22:59 Mostly Cloudy 67 19.4 64 17.8 91 91 SSE 5 7 29.85 1011 9 14 0.00 0.00
11:59 pm 23:59 Mostly Cloudy 67 19.4 64 17.8 91 91 Calm 29.85 1011 9 14 0.00 0.00

Powered by AerisWeather